Location: *
(32.8140°S, 174.6161°E)
Time: 02:52:51
(UTC+00:00)

SL-08 R/B - Pass Details

Date: 10 December 2019
Orbit: 673 x 740 km, 98.4° (Epoch: 17 January)

Event Time Altitude Azimuth Distance (km) Brightness Sun altitude
Rises 16:11:06 0° 177° (S) 3,079 7.3 -10.7°
Reaches altitude 10° 16:13:26 10° 183° (S) 2,164 6.3 -10.3°
Maximum altitude 16:17:53 42° 253° (WSW) 1,002 3.9 -9.5°
Drops below altitude 10° 16:22:21 10° 323° (NW) 2,174 5.2 -8.7°
Enters shadow 16:22:30 - 323° (NW) 2,228 5.3 -8.7°
